Tracking 29892 objects as of 21-Nov-2024
HD Live streaming from Space Station
objects crossing your sky now

FENGYUN 1C DEB

Track FENGYUN 1C DEB now!
10-day predictions


NORAD ID: 31736
Int'l Code: 1999-025CEK
Perigee: 845.6 km
Apogee: 861.4 km
Inclination: 98.7 °
Period: 101.9 minutes
Semi major axis: 7224 km
RCS: 0.0124 m2 (small)
Launch date: May 10, 1999
Source: People's Republic of China (PRC)
Launch site: Taiyaun Space Center, China (TSC)

Note: This is SATELLITE DEBRIS
Your satellite tracking list
Your tracking list is empty




NASA's NSSDC Master Catalog

Two Line Element Set (TLE):
1 31736U 99025CEK 24323.87300718  .00000444  00000-0  25705-3 0  9997
2 31736  98.6785 331.0330 0010992 274.1184  85.8732 14.13811406902267
Source of the keplerian elements: AFSPC